Location: Be Tobo
(6.6442°N, 10.6239°W)
Time: 00:34:01
(UTC+00:00)

Delta 198 - Pass Details

Date: 18 September 2020
Orbit: 458 x 1019 km, 24.8° (Epoch: 21 October)

Event Time Altitude Azimuth Distance (km) Brightness Sun altitude
Rises 18:59:58 0° 299° (WNW) 3,603 8.8 -5.7°
Reaches altitude 10° 19:02:48 10° 302° (WNW) 2,590 7.8 -6.4°
Maximum altitude 19:09:00 66° 24° (NNE) 886 4.3 -7.9°
Enters shadow 19:14:09 11° 106° (ESE) 2,169 5.7 -9.2°
